Regional Weather Roundup
Issued by NWS

Home | Current Version | Previous Version | Text Only | Print | Product List | Glossary Off
Versions: 1 2 3 4 5 6 7 8 9 10 11 12 13 14 15 16 17 18 19 20 21 22 23 24 25 26 27 28 29 30 31 32 33 34 35 36 37 38 39 40 41 42 43 44 45 46 47 48 49 50

000
ASUS43 KOAX 180510
RWRNE

WEATHER ROUNDUP FOR NEBRASKA
NATIONAL WEATHER SERVICE OMAHA NE
1100 PM CST WED DEC 17 2014

NOTES: SATELLITE DATA IS BEING USED TO AUGMENT CLOUD COVER ABOVE
       12000 FEET.
       "FAIR" INDICATES FEW OR NO CLOUDS BELOW 12,000 FEET WITH NO
       SIGNIFICANT WEATHER AND/OR OBSTRUCTIONS TO VISIBILITY.

  * THESE STATIONS DO NOT REPORT WEATHER SUCH AS RAIN...SNOW OR FOG.

NEZ001>004-019>022-054>056-180600-
NEBRASKA PANHANDLE

CITY           SKY/WX    TMP DP  RH WIND       PRES   REMARKS
SCOTTSBLUFF    FOG       18  17  96 CALM      30.02R VSB 1/4
ALLIANCE       FOG       21  19  92 SW6       30.01R VSB 1/2 WCI  13
CHADRON        FOG       20  18  92 W3        30.03R VSB 1
KIMBALL        CLOUDY    26  24  91 W3        29.96R
SIDNEY         FOG       21  19  92 SW12      30.01R VSB 3/4 WCI   9
$$

NEZ057>060-069>072-079>082-180600-
SOUTHWEST NEBRASKA

CITY           SKY/WX    TMP DP  RH WIND       PRES   REMARKS
NORTH PLATTE   CLOUDY    23  21  92 S5        30.12R WCI  17
IMPERIAL       CLOUDY    24  21  88 S7        30.08S FOG     WCI  16
LEXINGTON      CLOUDY    25  24  93 SE7       30.15R FOG     WCI  17
MCCOOK         CLOUDY    26  23  88 SE7       30.13R FOG     WCI  18
OGALLALA       CLOUDY    23  23  97 SW5       30.08R FOG     WCI  17
$$

NEZ005>010-023>029-035>040-094-180600-
NORTH CENTRAL NEBRASKA

CITY           SKY/WX    TMP DP  RH WIND       PRES   REMARKS
VALENTINE      CLOUDY    23  20  88 S14       30.09F WCI  11
AINSWORTH      CLOUDY    21  20  96 S5        30.11F FOG     WCI  14
BROKEN BOW     CLOUDY    24  22  91 S7        30.14R FOG     WCI  16
O`NEILL        CLOUDY    21  20  96 CALM      30.19S
ORD            CLOUDY    23  20  88 SE7       30.17R WCI  15
THEDFORD       CLOUDY    23  22  96 S7        30.10S FOG     WCI  15
$$

NEZ041-046>049-061>064-073>077-083>087-180600-
SOUTH CENTRAL NEBRASKA

CITY           SKY/WX    TMP DP  RH WIND       PRES   REMARKS
GRAND ISLAND   CLOUDY    24  18  77 SE6       30.20S WCI  17
AURORA         CLOUDY    25  20  81 SE7       30.20R WCI  17
HASTINGS       CLOUDY    25  18  74 SE6       30.18R WCI  18
HEBRON         CLOUDY    28  19  71 E6        30.22S WCI  21
HOLDREGE       CLOUDY    24  21  87 SE6       30.15S WCI  17
KEARNEY *      CLOUDY    25  18  74 E7        30.17S WCI  17
YORK           CLOUDY    25 N/A N/A SE6       30.22R WCI  18
$$

NEZ011>018-030>034-042>045-180600-
NORTHEAST NEBRASKA

CITY           SKY/WX    TMP DP  RH WIND       PRES   REMARKS
NORFOLK        CLOUDY    25  17  72 SE6       30.23R WCI  18
ALBION         CLOUDY    24  19  80 E5        30.20S WCI  18
BLAIR          CLOUDY    28  20  71 E3        30.25S
COLUMBUS *     CLOUDY    25  16  68 E7        30.24S WCI  17
FREMONT        CLOUDY    28  21  75 E3        30.26S
TEKAMAH        CLOUDY    27  20  75 E3        30.28R
WAYNE          CLOUDY    24  19  78 E5        30.26R WCI  19
$$

NEZ050>053-065>068-078-088>093-180600-
SOUTHEAST NEBRASKA

CITY           SKY/WX    TMP DP  RH WIND       PRES   REMARKS
LINCOLN        CLOUDY    27  18  69 E6        30.26S WCI  20
OMAHA EPPLEY   CLOUDY    28  19  69 E5        30.28S WCI  23
BEATRICE       CLOUDY    27  21  77 E6        30.23S WCI  21
FALLS CITY     CLOUDY    29  22  75 E5        30.25F WCI  24
NEBRASKA CITY  CLOUDY    28  20  72 CALM      30.26S
PLATTSMOUTH    CLOUDY    27  20  74 E3        30.26R
$$

NEZ044-045-051>053-067-180600-
OMAHA AREA

CITY           SKY/WX    TMP DP  RH WIND       PRES   REMARKS
OMAHA EPPLEY   CLOUDY    28  19  69 E5        30.28S WCI  23
BLAIR          CLOUDY    28  20  71 E3        30.25S
FREMONT        CLOUDY    28  21  75 E3        30.26S
MILLARD        CLOUDY    29  19  68 CALM      30.26S
OFFUTT AFB     CLOUDY    28  20  71 E2        30.26S
PLATTSMOUTH    CLOUDY    27  20  74 E3        30.26R
WAHOO          CLOUDY    28  20  72 SE5       30.25S WCI  22
$$


USA.gov is the U.S. government's official web portal to all federal, state and local government web resources and services.